This is the latest recevied weather packets stored in our database for station/object N9EA. If no packets are shown the sender has not sent any weather packets the latest 10 day(s).
| Time | Temp. | Humidity | Pressure | Rain* | Wind** | Luminosity | Snow |
|---|---|---|---|---|---|---|---|
| 1777732766 | 11.67° C | 47% | 1019.7 hPa | 0 mm | - | 443 W/m² | - |
| 1777732463 | 11.67° C | 51% | 1019.9 hPa | 0 mm | - | 427 W/m² | - |
| 1777732161 | 11.67° C | 55% | 1019.8 hPa | 0 mm | - | 413 W/m² | - |
| 1777731858 | 11.11° C | 58% | 1019.7 hPa | 0 mm | - | 404 W/m² | - |
| 1777731555 | 10.56° C | 58% | 1019.8 hPa | 0 mm | - | 386 W/m² | - |
| 1777731253 | 11.11° C | 55% | 1019.7 hPa | 0 mm | - | 374 W/m² | - |
| 1777730950 | 10.56° C | 60% | 1019.8 hPa | 0 mm | - | 358 W/m² | - |
| 1777730648 | 10° C | 61% | 1019.7 hPa | 0 mm | - | 344 W/m² | - |
| 1777730344 | 10° C | 61% | 1019.9 hPa | 0 mm | - | 331 W/m² | - |
| 1777730040 | 10° C | 61% | 1019.8 hPa | 0 mm | - | 316 W/m² | - |
| 1777729736 | 9.44° C | 63% | 1019.9 hPa | 0 mm | - | 304 W/m² | - |
| 1777729433 | 9.44° C | 62% | 1019.7 hPa | 0 mm | - | 289 W/m² | - |
| 1777729129 | 8.89° C | 62% | 1019.6 hPa | 0 mm | - | 275 W/m² | - |
| 1777728826 | 8.89° C | 62% | 1019.7 hPa | 0 mm | - | 262 W/m² | - |
| 1777728523 | 8.33° C | 63% | 1019.8 hPa | 0 mm | - | 249 W/m² | - |
| 1777728221 | 7.78° C | 62% | 1019.6 hPa | 0 mm | - | 236 W/m² | - |
| 1777727918 | 8.33° C | 62% | 1019.6 hPa | 0 mm | - | 223 W/m² | - |
| 1777727615 | 7.78° C | 63% | 1019.6 hPa | 0 mm | - | 195 W/m² | - |
| 1777727311 | 7.78° C | 64% | 1019.7 hPa | 0 mm | - | 154 W/m² | - |
| 1777727009 | 7.22° C | 64% | 1019.5 hPa | 0 mm | - | 168 W/m² | - |
| 1777726706 | 7.22° C | 66% | 1019.4 hPa | 0 mm | - | 176 W/m² | - |
| 1777726404 | 6.67° C | 66% | 1019.6 hPa | 0 mm | - | 163 W/m² | - |
| 1777726100 | 6.67° C | 68% | 1019.4 hPa | 0 mm | - | 152 W/m² | - |
| 1777725797 | 6.11° C | 68% | 1019.5 hPa | 0 mm | - | 140 W/m² | - |
| 1777725495 | 6.11° C | 69% | 1019.8 hPa | 0 mm | - | 116 W/m² | - |
* Rain latest hour (hover to see other rain measurements)
** Current wind speed in m/s (hover to see current wind gust speed)